Weather WX

World > North America > United States > Oregon

Hereford, Oregon Regional Weather

Lat: 44.50N, Lon: 118.04W
Wx Zone: ORZ062
Feedback

Hereford, OR Regional Weather

Expires:201906161500;;163061
ASUS46 KPQR 161410
RWROR 

OREGON REGIONAL WEATHER ROUNDUP
NATIONAL WEATHER SERVICE PORTLAND OR
700 AM PDT SUN JUN 16 2019

NOTE: "FAIR" INDICATES FEW OR NO CLOUDS BELOW 12,000 FEET WITH
NO SIGNIFICANT WEATHER AND/OR OBSTRUCTIONS TO VISIBILITY.


ORZ029>031-041-044-049-050-061>064-502-503-505>511-161500-
EASTERN OREGON

  
CITY           SKY/WX    TMP DP  RH WIND       PRES   REMARKS
MADRAS         SUNNY     55  41  58 CALM      30.02R                  
REDMOND        MOSUNNY   57  44  62 SE6       30.02S                  
BEND           MOSUNNY   59  46  63 S6        30.03S                  
PRINEVILLE     MOSUNNY   55  37  50 E3        30.03S                  
KLAMATH FALLS  SUNNY     56  47  71 CALM      30.05R                  
LAKEVIEW       MOSUNNY   55  40  56 NW13      30.07R                  
HERMISTON      SUNNY     66  52  60 CALM      29.91R                  
PENDLETON      SUNNY     61  48  62 SE7       29.93S                  
JOHN DAY       SUNNY     56  42  58 E5        30.04R                  
MEACHAM        SUNNY     49  40  71 CALM      30.02S                  
LA GRANDE      SUNNY     54  45  71 CALM      30.00S                  
BAKER CITY     SUNNY     57  48  72 CALM      30.00S                  
BURNS          SUNNY     55  39  54 CALM      30.04R                  
ROME             N/A     59  38  45 CALM      30.01R                  
ONTARIO        SUNNY     67  43  41 W10       29.93R                  
$$
  

SKY/WX - Weather  TMP - Temperature  DP - Dew Point  RH - Relative Humidity
WIND - Wind Direction/Speed PRES - Barometric Pressure VSB - Visibility
WCI - Wind Chill Index E13G22 Wind - East Wind 13 mph/Gusts of 22 mph